When you browse on this site, cookies collect data to enhance your experience and personalize the content and advertising you see.
Visit our Privacy Policy to learn more. By continuing to use the site, you agree to this use of cookies and data.
  • In Deutschland
  • Länderverzeichnis
  • Für 7 Tage
  • Wassertemperatur
  • Wetterkarte
  • Widgets
  • user-avatar
    Anmelden

    Stündliche Wetter Ust-Typyl

    Heute, 20 Oktober, Sonntag

    Zeit Temperatur Niederschläge Wind Luftdruck Luftfeuchtigkeit
    00:00 -6°C° 0 mm 1 m/S 740 mmHg 73%
    01:00 -6°C° 0 mm 1 m/S 740 mmHg 74%
    02:00 -6°C° 0 mm 1 m/S 740 mmHg 75%
    03:00 -6°C° 0 mm 1 m/S 739 mmHg 77%
    04:00 -7°C° 0 mm 1 m/S 739 mmHg 78%
    05:00 -7°C° 0 mm 1 m/S 739 mmHg 77%
    06:00 -7°C° 0 mm 1 m/S 739 mmHg 77%
    07:00 -7°C° 0 mm 1 m/S 739 mmHg 77%
    08:00 -7°C° 0 mm 2 m/S 738 mmHg 69%
    09:00 -6°C° 0 mm 2 m/S 738 mmHg 61%
    10:00 -6°C° 0 mm 3 m/S 738 mmHg 53%
    11:00 -5°C° 0 mm 3 m/S 738 mmHg 51%
    12:00 -4°C° 0 mm 3 m/S 737 mmHg 49%
    13:00 -2°C° 0 mm 3 m/S 736 mmHg 47%
    14:00 -2°C° 0 mm 3 m/S 736 mmHg 54%
    15:00 -4°C° 0 mm 4 m/S 735 mmHg 62%
    16:00 -4°C° 0 mm 4 m/S 735 mmHg 69%
    17:00 -4°C° 0 mm 4 m/S 735 mmHg 76%
    18:00 -4°C° 0 mm 4 m/S 734 mmHg 82%
    19:00 -4°C° 0 mm 5 m/S 734 mmHg 89%
    20:00 -4°C° 0.3 mm 5 m/S 733 mmHg 91%
    21:00 -4°C° 0.3 mm 5 m/S 733 mmHg 92%
    22:00 -4°C° 0.3 mm 5 m/S 733 mmHg 94%
    23:00 -3°C° 0.8 mm 4 m/S 732 mmHg 94%

    Morgen, 21 Oktober, Montag

    Zeit Temperatur Niederschläge Wind Luftdruck Luftfeuchtigkeit
    00:00 -2°C° 0.8 mm 4 m/S 732 mmHg 95%
    01:00 -2°C° 0.8 mm 4 m/S 732 mmHg 96%
    02:00 -1°C° 0.3 mm 3 m/S 732 mmHg 96%
    03:00 0°C° 0.3 mm 3 m/S 732 mmHg 97%
    04:00 +1°C° 0.3 mm 2 m/S 731 mmHg 98%
    05:00 +1°C° 0 mm 2 m/S 731 mmHg 98%
    06:00 +1°C° 0 mm 2 m/S 731 mmHg 98%
    07:00 +1°C° 0 mm 2 m/S 731 mmHg 98%
    08:00 +2°C° 0.1 mm 2 m/S 730 mmHg 98%
    09:00 +2°C° 0.1 mm 2 m/S 730 mmHg 98%
    10:00 +2°C° 0.1 mm 2 m/S 730 mmHg 98%
    11:00 +3°C° 0.1 mm 2 m/S 730 mmHg 98%
    12:00 +3°C° 0.1 mm 2 m/S 730 mmHg 98%
    13:00 +3°C° 0.1 mm 2 m/S 730 mmHg 98%
    14:00 +3°C° 0.1 mm 2 m/S 729 mmHg 98%
    15:00 +3°C° 0.1 mm 2 m/S 729 mmHg 98%
    16:00 +3°C° 0.1 mm 2 m/S 729 mmHg 98%
    17:00 +3°C° 0 mm 2 m/S 728 mmHg 98%
    18:00 +3°C° 0 mm 2 m/S 728 mmHg 98%
    19:00 +3°C° 0 mm 2 m/S 728 mmHg 98%
    20:00 +4°C° 0.2 mm 2 m/S 726 mmHg 98%
    21:00 +3°C° 0.2 mm 3 m/S 725 mmHg 97%
    22:00 +3°C° 0.2 mm 3 m/S 724 mmHg 97%
    23:00 +3°C° 1.7 mm 4 m/S 723 mmHg 96%

    übermorgen, 22 Oktober, Dienstag

    Zeit Temperatur Niederschläge Wind Luftdruck Luftfeuchtigkeit
    00:00 +3°C° 1.7 mm 5 m/S 721 mmHg 95%
    01:00 +3°C° 1.7 mm 6 m/S 720 mmHg 94%
    02:00 +3°C° 2.1 mm 6 m/S 719 mmHg 94%
    03:00 +4°C° 2.1 mm 6 m/S 718 mmHg 95%
    04:00 +4°C° 2.1 mm 6 m/S 717 mmHg 95%
    05:00 +4°C° 0.5 mm 6 m/S 717 mmHg 94%
    06:00 +3°C° 0.5 mm 6 m/S 716 mmHg 93%
    07:00 +3°C° 0.5 mm 7 m/S 716 mmHg 93%
    08:00 +3°C° 0.7 mm 7 m/S 716 mmHg 94%
    09:00 +2°C° 0.7 mm 7 m/S 717 mmHg 95%
    10:00 +1°C° 0.7 mm 8 m/S 717 mmHg 96%
    11:00 0°C° 0.4 mm 8 m/S 718 mmHg 95%
    12:00 0°C° 0.4 mm 8 m/S 718 mmHg 95%
    13:00 -1°C° 0.4 mm 7 m/S 719 mmHg 95%
    14:00 -1°C° 0.2 mm 7 m/S 720 mmHg 95%
    15:00 -2°C° 0.2 mm 7 m/S 721 mmHg 95%
    16:00 -2°C° 0.2 mm 7 m/S 722 mmHg 95%
    17:00 -3°C° 0.3 mm 6 m/S 723 mmHg 94%
    18:00 -3°C° 0.3 mm 6 m/S 723 mmHg 93%
    19:00 -4°C° 0.3 mm 6 m/S 724 mmHg 92%
    20:00 -4°C° 0.1 mm 5 m/S 725 mmHg 91%
    21:00 -5°C° 0.1 mm 5 m/S 725 mmHg 90%
    22:00 -6°C° 0.1 mm 5 m/S 726 mmHg 90%
    23:00 -5°C° 0 mm 4 m/S 726 mmHg 88%

    23 Oktober, Mittwoch

    Zeit Temperatur Niederschläge Wind Luftdruck Luftfeuchtigkeit
    00:00 -5°C° 0 mm 4 m/S 726 mmHg 87%
    01:00 -7°C° 0 mm 4 m/S 727 mmHg 86%
    02:00 -6°C° 0 mm 3 m/S 727 mmHg 88%
    03:00 -6°C° 0 mm 2 m/S 728 mmHg 90%
    04:00 -6°C° 0 mm 2 m/S 728 mmHg 92%
    05:00 -6°C° 0 mm 2 m/S 728 mmHg 93%
    06:00 -4°C° 0 mm 1 m/S 728 mmHg 93%
    07:00 -4°C° 0 mm 1 m/S 729 mmHg 94%
    08:00 -4°C° 0 mm 1 m/S 729 mmHg 91%
    09:00 -5°C° 0 mm 2 m/S 729 mmHg 88%
    10:00 -4°C° 0 mm 2 m/S 729 mmHg 85%
    11:00 -4°C° 0 mm 2 m/S 728 mmHg 83%
    12:00 -3°C° 0 mm 2 m/S 728 mmHg 81%
    13:00 -4°C° 0 mm 3 m/S 728 mmHg 79%
    14:00 -4°C° 0 mm 3 m/S 727 mmHg 79%
    15:00 -4°C° 0 mm 3 m/S 727 mmHg 80%
    16:00 -4°C° 0 mm 3 m/S 726 mmHg 80%
    17:00 -4°C° 0 mm 4 m/S 726 mmHg 81%
    18:00 -4°C° 0 mm 4 m/S 725 mmHg 83%
    19:00 -5°C° 0 mm 5 m/S 725 mmHg 85%
    20:00 -5°C° 0.2 mm 5 m/S 724 mmHg 88%
    21:00 -5°C° 0.2 mm 5 m/S 723 mmHg 91%
    22:00 -4°C° 0.2 mm 5 m/S 723 mmHg 94%
    23:00 -2°C° 0.3 mm 5 m/S 722 mmHg 95%

    24 Oktober, Donnerstag

    Zeit Temperatur Niederschläge Wind Luftdruck Luftfeuchtigkeit
    00:00 -1°C° 0.3 mm 5 m/S 722 mmHg 96%
    01:00 -1°C° 0.3 mm 6 m/S 721 mmHg 96%
    02:00 0°C° 0 mm 5 m/S 721 mmHg 96%
    03:00 +1°C° 0 mm 5 m/S 721 mmHg 95%
    04:00 +2°C° 0 mm 5 m/S 720 mmHg 95%
    05:00 +2°C° 0.1 mm 5 m/S 720 mmHg 95%
    06:00 +2°C° 0.1 mm 6 m/S 720 mmHg 95%
    07:00 +2°C° 0.1 mm 6 m/S 720 mmHg 95%
    08:00 +2°C° 0 mm 6 m/S 720 mmHg 94%
    09:00 +2°C° 0 mm 6 m/S 720 mmHg 94%
    10:00 +3°C° 0 mm 6 m/S 720 mmHg 94%
    11:00 +2°C° 0 mm 6 m/S 720 mmHg 94%
    12:00 +2°C° 0 mm 6 m/S 720 mmHg 94%
    13:00 +2°C° 0 mm 6 m/S 721 mmHg 95%
    14:00 +2°C° 0 mm 6 m/S 721 mmHg 94%
    15:00 +2°C° 0 mm 6 m/S 721 mmHg 93%
    16:00 +2°C° 0 mm 5 m/S 722 mmHg 92%
    17:00 +1°C° 0 mm 5 m/S 722 mmHg 92%
    18:00 +1°C° 0 mm 5 m/S 723 mmHg 92%
    19:00 +1°C° 0 mm 4 m/S 723 mmHg 92%
    20:00 0°C° 0 mm 4 m/S 724 mmHg 92%
    21:00 +1°C° 0 mm 3 m/S 724 mmHg 93%
    22:00 +1°C° 0 mm 2 m/S 724 mmHg 94%
    23:00 +1°C° 0 mm 2 m/S 724 mmHg 94%

    25 Oktober, Freitag

    Zeit Temperatur Niederschläge Wind Luftdruck Luftfeuchtigkeit
    00:00 -1°C° 0 mm 2 m/S 724 mmHg 95%
    01:00 -1°C° 0 mm 2 m/S 724 mmHg 95%
    02:00 -1°C° 0 mm 2 m/S 725 mmHg 95%
    03:00 -1°C° 0 mm 2 m/S 725 mmHg 96%
    04:00 -1°C° 0 mm 2 m/S 725 mmHg 96%
    05:00 -1°C° 0 mm 2 m/S 725 mmHg 96%
    06:00 -1°C° 0 mm 2 m/S 725 mmHg 96%
    07:00 -1°C° 0 mm 2 m/S 725 mmHg 96%
    08:00 0°C° 0 mm 3 m/S 725 mmHg 95%
    09:00 0°C° 0 mm 3 m/S 725 mmHg 94%
    10:00 +1°C° 0 mm 3 m/S 725 mmHg 94%
    11:00 0°C° 0 mm 4 m/S 724 mmHg 93%
    12:00 +1°C° 0 mm 4 m/S 724 mmHg 92%
    13:00 +3°C° 0 mm 4 m/S 724 mmHg 91%
    14:00 +1°C° 0 mm 5 m/S 724 mmHg 92%
    15:00 +1°C° 0 mm 5 m/S 723 mmHg 94%
    16:00 +1°C° 0 mm 5 m/S 723 mmHg 96%
    17:00 +1°C° 0 mm 5 m/S 723 mmHg 95%
    18:00 +1°C° 0 mm 5 m/S 724 mmHg 95%
    19:00 +2°C° 0 mm 5 m/S 724 mmHg 95%
    20:00 +3°C° 0.1 mm 4 m/S 724 mmHg 95%
    21:00 +3°C° 0.1 mm 4 m/S 724 mmHg 95%
    22:00 +3°C° 0.1 mm 4 m/S 724 mmHg 96%
    23:00 +1°C° 0.1 mm 4 m/S 724 mmHg 96%
    Mehr zeigen